This is the latest recevied weather packets stored in our database for station/object KM4KBD. If no packets are shown the sender has not sent any weather packets the latest 10 day(s).
| Time | Temp. | Humidity | Pressure | Rain* | Wind** | Luminosity | Snow |
|---|---|---|---|---|---|---|---|
| 1777407721 | 23.33° C | 69% | 1021.3 hPa | 0 mm | - | 574 W/m² | - |
| 1777407416 | 23.89° C | 71% | 1021.3 hPa | 0 mm | - | 544 W/m² | - |
| 1777407112 | 23.89° C | 69% | 1021.3 hPa | 0 mm | - | 585 W/m² | - |
| 1777406807 | 23.33° C | 68% | 1021.4 hPa | 0 mm | - | 520 W/m² | - |
| 1777406502 | 23.89° C | 71% | 1021.3 hPa | 0 mm | - | 237 W/m² | - |
| 1777406198 | 23.89° C | 74% | 1021.4 hPa | 0 mm | - | 400 W/m² | - |
| 1777405898 | 23.33° C | 72% | 1021.7 hPa | 0 mm | - | 217 W/m² | - |
| 1777405594 | 23.33° C | 73% | 1021.8 hPa | 0 mm | - | 706 W/m² | - |
| 1777405291 | 23.33° C | 72% | 1021.9 hPa | 0 mm | - | 642 W/m² | - |
| 1777404986 | 22.78° C | 77% | 1021.9 hPa | 0 mm | - | 736 W/m² | - |
| 1777404686 | 22.78° C | 75% | 1021.7 hPa | 0 mm | - | 147 W/m² | - |
| 1777404382 | 23.33° C | 76% | 1021.7 hPa | 0 mm | - | 696 W/m² | - |
| 1777404079 | 23.33° C | 72% | 1021.4 hPa | 0 mm | - | 772 W/m² | - |
| 1777403775 | 22.78° C | 76% | 1021.5 hPa | 0 mm | - | 342 W/m² | - |
| 1777403474 | 22.22° C | 77% | 1021.5 hPa | 0 mm | - | 835 W/m² | - |
| 1777403174 | 22.78° C | 77% | 1021.5 hPa | 0 mm | - | 135 W/m² | - |
| 1777402869 | 22.22° C | 78% | 1021.5 hPa | 0 mm | - | 263 W/m² | - |
| 1777402566 | 22.22° C | 77% | 1021.5 hPa | 0 mm | - | 243 W/m² | - |
| 1777402264 | 21.67° C | 81% | 1021.7 hPa | 0 mm | - | 327 W/m² | - |
| 1777401958 | 21.67° C | 80% | 1021.7 hPa | 0 mm | - | 142 W/m² | - |
| 1777401657 | 22.22° C | 78% | 1021.8 hPa | 0 mm | - | 225 W/m² | - |
| 1777401355 | 22.22° C | 79% | 1021.7 hPa | 0 mm | - | 814 W/m² | - |
| 1777401050 | 22.22° C | 78% | 1021.9 hPa | 0 mm | - | 414 W/m² | - |
| 1777400746 | 22.22° C | 79% | 1022.1 hPa | 0 mm | - | 343 W/m² | - |
| 1777400443 | 21.67° C | 80% | 1022.1 hPa | 0 mm | - | 910 W/m² | - |
* Rain latest hour (hover to see other rain measurements)
** Current wind speed in m/s (hover to see current wind gust speed)